This is the latest recevied weather packets stored in our database for station/object SV4JYD-14. If no packets are shown the sender has not sent any weather packets the latest 10 day(s).
| Time | Temp. | Humidity | Pressure | Rain* | Wind** | Luminosity | Snow |
|---|---|---|---|---|---|---|---|
| 1777170312 | 13.89° C | 68% | 1013 hPa | 0 mm | - | - | - |
| 1777169412 | 13.89° C | 67% | 1014 hPa | 0 mm | - | - | - |
| 1777168512 | 14.44° C | 67% | 1013 hPa | 0 mm | - | - | - |
| 1777167611 | 14.44° C | 66% | 1013 hPa | 0 mm | - | - | - |
| 1777166711 | 14.44° C | 64% | 1013 hPa | 0 mm | - | - | - |
| 1777165811 | 15° C | 63% | 1014 hPa | 0 mm | - | - | - |
| 1777164911 | 15° C | 62% | 1013 hPa | 0 mm | - | - | - |
| 1777164011 | 15° C | 63% | 1013 hPa | 0 mm | - | - | - |
| 1777163110 | 13.89° C | 64% | 1013 hPa | 0 mm | - | - | - |
| 1777162210 | 13.89° C | 64% | 1014 hPa | 0 mm | - | - | - |
| 1777161310 | 14.44° C | 63% | 1013 hPa | 0 mm | - | - | - |
| 1777160409 | 14.44° C | 62% | 1013 hPa | 0 mm | - | - | - |
| 1777159509 | 15° C | 61% | 1014 hPa | 0 mm | - | - | - |
| 1777158609 | 15° C | 59% | 1014 hPa | 0 mm | - | - | - |
| 1777157709 | 15.56° C | 58% | 1014 hPa | 0 mm | - | - | - |
| 1777156808 | 15.56° C | 57% | 1014 hPa | 0 mm | - | - | - |
| 1777155908 | 16.11° C | 53% | 1014 hPa | 0 mm | - | - | - |
| 1777155009 | 16.67° C | 52% | 1014 hPa | 0 mm | - | - | - |
| 1777154108 | 17.22° C | 49% | 1014 hPa | 0 mm | - | - | - |
| 1777153207 | 17.78° C | 46% | 1014 hPa | 0 mm | - | - | - |
| 1777152307 | 17.78° C | 43% | 1014 hPa | 0 mm | - | - | - |
| 1777151407 | 18.33° C | 43% | 1014 hPa | 0 mm | - | - | - |
| 1777150506 | 18.33° C | 41% | 1014 hPa | 0 mm | - | - | - |
| 1777149606 | 18.33° C | 42% | 1014 hPa | 0 mm | - | - | - |
| 1777148706 | 17.78° C | 43% | 1014 hPa | 0 mm | - | - | - |
* Rain latest hour (hover to see other rain measurements)
** Current wind speed in m/s (hover to see current wind gust speed)